Regional Weather Roundup
Issued by NWS Charleston, WV

Home | Current Version | Previous Version | Graphics & Text | Print | Product List | Glossary On
Versions: 1 2 3 4 5 6 7 8 9 10 11 12 13 14 15 16 17 18 19 20 21 22 23 24 25 26 27
000
ASUS41 KRLX 211610
RWRRLX
West Virginia Regional Weather Roundup
National Weather Service Charleston WV
1200 PM EDT WED JUN 21 2017

Note: "fair" indicates few or no clouds below 12,000 feet with no
significant weather and/or obstructions to visibility.

WVZ003-211700-
Northern Panhandle of West Virginia

CITY           SKY/WX    TMP DP  RH WIND       PRES   REMARKS
WHEELING       MOSUNNY   77  58  51 MISG      30.01S
$$

WVZ009-211700-
Northwest West Virginia

CITY           SKY/WX    TMP DP  RH WIND       PRES   REMARKS
PARKERSBURG    MOSUNNY   80  62  54 SW8       30.03F
$$

WVZ006-211700-
Western West Virginia

CITY           SKY/WX    TMP DP  RH WIND       PRES   REMARKS
HUNTINGTON     MOSUNNY   83  64  52 SW9       30.04S
$$

WVZ015-211700-
West Central West Virginia

CITY           SKY/WX    TMP DP  RH WIND       PRES   REMARKS
CHARLESTON     CLOUDY    80  62  54 VRB7      30.06S
$$

WVZ022-031-211700-
North Central West Virginia

CITY           SKY/WX    TMP DP  RH WIND       PRES   REMARKS
CLARKSBURG     MOSUNNY   78  60  53 MISG      30.03F
MORGANTOWN     CLOUDY    76  59  55 VRB5      30.04S
$$

WVZ025-035-042-045-211700-
Southern West Virginia

CITY           SKY/WX    TMP DP  RH WIND       PRES   REMARKS
BECKLEY        MOSUNNY   77  59  53 W8        30.14F
LOGAN            N/A     81  64  57 VRB7      30.09F
BLUEFIELD      MOSUNNY   73  55  53 W12       30.18S
LEWISBURG      PTSUNNY   76  58  54 W7        30.13S
$$

WVZ047-211700-
Northern Mountains of West Virginia

CITY           SKY/WX    TMP DP  RH WIND       PRES   REMARKS
ELKINS         NOT AVBL
$$

WVZ052-211700-
Eastern Panhandle of West Virginia

CITY           SKY/WX    TMP DP  RH WIND       PRES   REMARKS
MARTINSBURG    CLOUDY    79  59  50 SW8       29.99F
PETERSBURG     MOSUNNY   83  60  44 W13       30.02F
$$




USA.gov is the U.S. government's official web portal to all federal, state and local government web resources and services.